Track QB50P1 (EO-79) now! 10-day predictions QB50P1 (EO-79) is classified as:
1 40025U 14033R 25199.42177318 .00005950 00000-0 36057-3 0 9994 2 40025 98.0850 184.1905 0008408 286.1155 73.9148 15.10965179602508